Aeroporto :
LOGIN :

Iscrizione | Disclaimer

   EN    FR    IT 

 










Sommario :    VFR   VFR Marginale   IFR   IFR Intensivo   IFR Molto Intensivo
Visibilità : 
Base nubi : 
>= 8 km
>= 3000ft
5 / 8 km
1000 / 3000 ft
1500m / 5 km
500 / 1000 ft
800 / 1500m
200 / 500 ft
< 800m
< 200 ft
Simboli :   Temporali  Nebbia  Neve Forte  Precipitazioni Forti  Vento > 20 kt
SIGMETs :   Varie  Temporali  Ghiacco  Turbolenza  Onda orograficha  Ceneri Vulcaniche







- Altitudine del aeroporto : 778 ft
- Codice IATA : BRQ


LKTB - Brno-Turany

ULTIMO METAR :
  • 190030Z VRB04KT CAVOK 17/15 Q1015 NOSIG

METARs OBSOLETI :
  • 190000Z 08005KT CAVOK 18/15 Q1015 NOSIG
  • 182330Z 05003KT CAVOK 20/15 Q1015 NOSIG
  • 182300Z 07005KT CAVOK 19/15 Q1015 NOSIG
  • 182230Z 07005KT CAVOK 19/16 Q1015 NOSIG
  • 182200Z 06007KT CAVOK 19/16 Q1015 NOSIG

TAF TAF LKTB
Valido dal 19 a 00 ore il 20 a 06 ore UTC


182300Z 1900/2006 07006KT CAVOK
BECMG 1906/1909 15008KT
TEMPO 1910/1921 18014G26KT 8000 SHRA SCT040TCU
PROB30
TEMPO 1912/1919 4000 TSRA SCT030CB
Nessun NOTAM noto per questo aeroporto.



MetMap, La meteo Aeronautica in un colpo d'occhio ! - Copyright ORBIFLY Dicembre 2007 - Disclaimer

ORBIFLY MET'MAP TEAM :

Programmazione e sviluppo : Alexandra Zaïnal
Concezione e sviluppo : Baudouin d'Aumeries
Co-Programmazione e sviluppo : Marc-Olivier Méhu
Supporto tecnico e logistico : Manuel Goepfert
Aiuto per la traduzione : Arnaldo La Scala

Contatto : metmap@orbifly.com




FONTI E CREDITI :

   NOAA